Home   Weather   Vila Nova de Gaia   Past weeks

Flag for Portugal Past Weather in Vila Nova de Gaia, Portugal — Yesterday and Last 2 Weeks

Now
55 °F

Passing clouds.


Feels Like: 55 °F
Forecast: 52 / 63 °F
Wind: 3 mph from Northeast

Location: Porto / Pedras Rubras

Current Time: Apr 24, 2017 at 1:03:32 am

Latest Report: Apr 24, 2017 at 12:00 am


Visibility: 4 mi

Pressure: 29.98 "Hg

Humidity: 100%

Dew Point: 55 °F

Location of Vila Nova de GaiaLocation

Past Weather in Vila Nova de Gaia — Graph

°F

Vila Nova de Gaia Temperature Yesterday

Maximum temperature yesterday: 70 °F (at 1:00 pm)
Minimum temperature yesterday: 50 °F (at 6:00 am)
Average temperature yesterday: 59 °F

High & Low Weather Summary for the Past Weeks

 TemperatureHumidityPressure
High82 °F (Apr 19, 5:30 pm)100% (Apr 23, 12:30 am)30.12 "Hg (Apr 23, 12:30 am)
Low50 °F (Apr 23, 6:00 am)21% (Apr 19, 8:30 pm)29.77 "Hg (Apr 19, 6:30 pm)
Average65 °F57%30.00 "Hg
* Reported Apr 19 8:00 am — Apr 24 12:00 am, Vila Nova de Gaia, Weather by CustomWeather, © 2017

Note: Actual official high and low records may vary slightly from our data, if they occured in-between our weather recording intervals... More about our weather records

Advertising

Vila Nova de Gaia Weather History for the Previous 24 Hours

Scroll right to see more
 ConditionsComfort  
Time TempWeatherWind HumidityBarometerVisibility
12:00 am
Mon, Apr 24
55 °FPassing clouds.3 mph100%29.98 "Hg4 mi
11:30 pm
Sun, Apr 23
57 °FPassing clouds.1 mph94%29.98 "Hg4 mi
11:00 pm55 °FPassing clouds.3 mph94%30.01 "Hg4 mi
10:30 pm57 °FPassing clouds.2 mph94%30.01 "Hg4 mi
10:00 pm55 °FFog.No wind94%29.98 "Hg3 mi
9:30 pm57 °FFog.1 mph94%29.98 "Hg3 mi
9:00 pm59 °FClear.3 mph94%29.98 "Hg4 mi
8:30 pm59 °FClear.3 mph94%29.98 "Hg4 mi
8:00 pm61 °FSunny.6 mph83%29.98 "Hg10 mi
7:30 pm63 °FSunny.7 mph77%29.98 "Hg10 mi
7:00 pm63 °FPassing clouds.7 mph83%29.98 "HgN/A
6:30 pm64 °FSunny.8 mph78%29.98 "Hg10 mi
6:00 pm64 °FPassing clouds.7 mph78%29.98 "HgN/A
5:30 pm66 °FPassing clouds.10 mph73%29.98 "HgN/A
5:00 pm66 °FPassing clouds.9 mph73%29.98 "HgN/A
4:30 pm66 °FPassing clouds.9 mph68%29.98 "HgN/A
4:00 pm66 °FPassing clouds.7 mph68%29.98 "HgN/A
3:30 pm70 °FPassing clouds.7 mph50%29.98 "HgN/A
3:00 pm70 °FPassing clouds.8 mph43%30.01 "HgN/A
2:00 pm70 °FPassing clouds.5 mph50%30.01 "HgN/A
1:00 pm70 °FPassing clouds.6 mph50%30.01 "HgN/A
12:30 pm68 °FSunny.3 mph53%30.01 "Hg10 mi
12:00 pm68 °FPassing clouds.7 mph60%30.04 "HgN/A
11:30 am66 °FPassing clouds.6 mph68%30.04 "HgN/A
11:00 am68 °FPassing clouds.3 mph56%30.04 "HgN/A
10:30 am66 °FSunny.3 mph64%30.04 "Hg10 mi
10:00 am64 °FSunny.2 mph68%30.04 "Hg10 mi
9:30 am61 °FSunny.2 mph72%30.04 "Hg10 mi
9:00 am57 °FPassing clouds.5 mph82%30.01 "HgN/A
8:30 am55 °FSunny.5 mph88%30.04 "Hg10 mi
8:00 am54 °FSunny.6 mph94%30.04 "Hg10 mi
7:30 am52 °FSunny.5 mph88%30.04 "Hg10 mi
7:00 am50 °FPassing clouds.3 mph94%30.01 "HgN/A
6:30 am50 °FPassing clouds.3 mph94%30.01 "HgN/A
6:00 am50 °FPassing clouds.5 mph100%30.01 "HgN/A
5:30 am52 °FClear.No wind94%30.01 "Hg10 mi
5:00 am52 °FClear.5 mph94%30.04 "Hg5 mi
4:30 am52 °FPassing clouds.5 mph100%30.04 "Hg4 mi
4:00 am52 °FFog.No wind100%30.04 "Hg2 mi
3:30 am52 °FFog.No wind100%30.04 "Hg2 mi
3:00 am52 °FFog.No wind94%30.04 "Hg3 mi
2:30 am52 °FFog.No wind100%30.04 "Hg3 mi
2:00 am54 °FClear.No wind100%30.07 "Hg4 mi
1:30 am54 °FClear.No wind100%30.07 "Hg5 mi
1:00 am54 °FClear.No wind100%30.07 "Hg4 mi
Weather by CustomWeather, © 2017

See weather overviewHow to use our weather pages